Dewar Lakes, Nunavut

12:20 AM EST on December 04, 2016 (GMT -0500)
Dewar Lakes

Weather History for CWUW - November, 2012

Change the Weather History Date:

Sunday, November 4, 2012

  Actual Average Record
Temperature  
Mean Temperature 2 °F -  
Max Temperature 12 °F 9 °F 26 °F (2000)
Min Temperature -5 °F 0 °F -14 °F (2008)
Degree Days  
Heating Degree Days 62    
Moisture  
Dew Point -    
Average Humidity    
Maximum Humidity    
Minimum Humidity    
Precipitation  
Precipitation 0.00 in - - ()
Sea Level Pressure  
Sea Level Pressure 30.03 in    
Wind  
Wind Speed 14 mph ()    
Max Wind Speed 29 mph    
Max Gust Speed -    
Visibility 5.9 miles    
Events Rain , Snow    
Averages and records for this station are not official NWS values.
T = Trace of Precipitation, MM = Missing Value Source: Averaged Metar Reports

Daily Weather History Graph

Daily Weather History Graph

Search for Another Location

Airport or City:

Trip Planner

Search our weather history database for the weather conditions in past years. The results will help you decide how hot, cold, wet, or windy it might be!

Date:

Astronomy

Nov. 04, 2012 Rise Set
Actual Time 8:17 AM EST 2:37 PM EST
Civil Twilight 7:06 AM EST 3:48 PM EST
Nautical Twilight 5:55 AM EST 4:59 PM EST
Astronomical Twilight 4:49 AM EST 6:05 PM EST
Moon 6:30 PM EST 1:47 PM EST
Length of Visible Light 8h 42m
Length of Day
6h 20m
Waning Gibbous, 72% of the Moon is Illuminated
Nov 4
Waning Gibbous
Nov 6
Last Quarter
Nov 13
New
Nov 20
First Quarter
Nov 28
Full

Hourly Weather History & Observations

Time (EST) Temp. Windchill Dew Point Humidity Pressure Visibility Wind Dir Wind Speed Gust Speed Precip Events Conditions
12:00 AM -2.2 °F -22.2 °F - N/A% 30.12 in 9.0 mi NW 15.0 mph - N/A   Clear
1:00 AM -2.2 °F -24.1 °F - N/A% 30.12 in 9.0 mi NW 18.4 mph - N/A   Clear
1:00 AM -4 °F - - % 30.14 in 9 mi NNW 16.1 mph - -  
1:00 AM -4.0 °F -25.2 °F - N/A% 30.14 in 9.0 mi NNW 16.1 mph - N/A   Clear
2:00 AM -4.0 °F -23.7 °F - N/A% 30.16 in 9.0 mi NNW 13.8 mph - N/A   Clear
2:54 AM -5.8 °F -30.5 °F - N/A% 29.96 in 9.0 mi NNW 21.9 mph - N/A   Clear
3:00 AM -5.8 °F -29.9 °F - N/A% 30.17 in 9.0 mi NNW 20.7 mph - N/A   Clear
3:36 AM -4.0 °F -28.1 °F - N/A% 29.96 in 9.0 mi NNW 21.9 mph - N/A   Clear
4:00 AM -4 °F - - % 30.18 in 9 mi NNW 17.3 mph - -  
4:00 AM -4.0 °F -26.4 °F - N/A% 30.18 in 9.0 mi NNW 18.4 mph - N/A   Partly Cloudy
4:15 AM -4.0 °F -23.7 °F - N/A% 29.98 in 9.0 mi NNW 13.8 mph - N/A   Partly Cloudy
5:00 AM -5.8 °F -28.2 °F - N/A% 30.19 in 9.0 mi NNW 17.3 mph - N/A   Clear
6:00 AM -5.8 °F -28.2 °F - N/A% 30.20 in 9.0 mi NNW 17.3 mph - N/A   Clear
6:24 AM -4.0 °F -25.2 °F - N/A% 30.00 in 9.0 mi NNW 16.1 mph - N/A   Clear
6:44 AM -4.0 °F -24.5 °F - N/A% 30.00 in 9.0 mi NW 15.0 mph - N/A   Clear
7:00 AM -4 °F - - % 30.21 in 9 mi NW 16.1 mph - -  
7:00 AM -4.0 °F -25.2 °F - N/A% 30.21 in 9.0 mi NW 16.1 mph - N/A   Partly Cloudy
7:08 AM -4.0 °F -25.2 °F - N/A% 30.01 in 9.0 mi NNW 16.1 mph - N/A   Partly Cloudy
7:25 AM -4.0 °F -25.8 °F - N/A% 30.01 in 9.0 mi NW 17.3 mph - N/A   Mostly Cloudy
7:39 AM -2.2 °F -24.7 °F - N/A% 30.00 in 9.0 mi NNW 19.6 mph - N/A   Overcast
8:00 AM 1.4 °F -20.5 °F - N/A% 30.20 in 9.0 mi NNW 20.7 mph - N/A   Overcast
9:00 AM 3.2 °F -15.3 °F - N/A% 30.19 in 9.0 mi NNW 15.0 mph - N/A   Overcast
9:44 AM 5.0 °F -10.0 °F - N/A% 29.99 in 9.0 mi NW 10.4 mph - N/A   Overcast
9:50 AM 5.0 °F -11.6 °F - N/A% 29.99 in 9.0 mi NW 12.7 mph - N/A   Overcast
10:00 AM 4 °F - - % 30.20 in 9 mi WNW 10.4 mph - -   Overcast
10:00 AM 5.0 °F -10.0 °F - N/A% 30.20 in 9.0 mi WNW 10.4 mph - N/A   Overcast
10:12 AM 5.0 °F -10.8 °F - N/A% 30.00 in 6.0 mi NW 11.5 mph - N/A   Overcast
10:51 AM 5.0 °F -10.8 °F - N/A% 29.99 in 8.0 mi WNW 11.5 mph - N/A   Overcast
11:00 AM 5.0 °F -11.6 °F - N/A% 30.19 in 7.0 mi WNW 12.7 mph - N/A   Overcast
11:12 AM 5.0 °F -11.6 °F - N/A% 29.99 in 6.0 mi West 12.7 mph - N/A Snow Light Snow
11:33 AM 5.0 °F -12.3 °F - N/A% 29.99 in 5.0 mi West 13.8 mph - N/A Snow Light Snow
11:44 AM 5.0 °F -11.6 °F - N/A% 29.99 in 7.0 mi West 12.7 mph - N/A Snow Light Snow
11:45 AM 5.0 °F -11.6 °F - N/A% 29.99 in 8.0 mi West 12.7 mph - N/A Snow Light Snow
12:00 PM 5.0 °F -12.3 °F - N/A% 30.19 in 9.0 mi WSW 13.8 mph - N/A Snow Light Snow
12:08 PM 5.0 °F -13.0 °F - N/A% 29.99 in 9.0 mi WSW 15.0 mph - N/A Snow Light Snow
12:10 PM 5.0 °F -13.6 °F - N/A% 29.99 in 9.0 mi WSW 16.1 mph - N/A   Overcast
12:29 PM 5.0 °F -13.0 °F - N/A% 29.98 in 9.0 mi West 15.0 mph - N/A Snow Light Snow
12:52 PM 5.0 °F -12.3 °F - N/A% 29.98 in 9.0 mi WSW 13.8 mph - N/A   Overcast
12:54 PM 5.0 °F -12.3 °F - N/A% 29.98 in 9.0 mi WSW 13.8 mph - N/A   Overcast
1:00 PM 4 °F - - % 30.19 in 9 mi WSW 13.8 mph - -   Overcast
1:00 PM 5.0 °F -13.0 °F - N/A% 30.19 in 9.0 mi West 15.0 mph - N/A   Overcast
1:09 PM 5.0 °F -13.0 °F - N/A% 29.98 in 9.0 mi West 15.0 mph - N/A Snow Light Snow
1:29 PM 5.0 °F -11.6 °F - N/A% 29.99 in 9.0 mi West 12.7 mph - N/A   Overcast
1:41 PM 5.0 °F -11.6 °F - N/A% 29.99 in 9.0 mi WSW 12.7 mph - N/A Snow Light Snow
1:55 PM 5.0 °F -10.8 °F - N/A% 29.99 in 9.0 mi West 11.5 mph - N/A Snow Light Snow
1:57 PM 5.0 °F -10.8 °F - N/A% 29.99 in 9.0 mi WSW 11.5 mph - N/A Snow Light Snow
1:59 PM 5.0 °F -10.8 °F - N/A% 29.99 in 9.0 mi WSW 11.5 mph - N/A Snow Light Snow
2:00 PM 5.0 °F -11.6 °F - N/A% 30.19 in 9.0 mi West 12.7 mph - N/A Snow Light Snow
2:12 PM 5.0 °F -10.8 °F - N/A% 29.99 in 9.0 mi WSW 11.5 mph - N/A Snow Light Snow
2:16 PM 5.0 °F -10.0 °F - N/A% 29.99 in 9.0 mi WSW 10.4 mph - N/A Snow Light Snow
2:37 PM 5.0 °F -12.3 °F - N/A% 29.99 in 9.0 mi West 13.8 mph - N/A Snow Light Snow
2:47 PM 5.0 °F -10.8 °F - N/A% 29.99 in 9.0 mi West 11.5 mph - N/A   Overcast
2:48 PM 5.0 °F -10.8 °F - N/A% 29.99 in 9.0 mi West 11.5 mph - N/A   Overcast
3:00 PM 5.0 °F -10.0 °F - N/A% 30.20 in 9.0 mi WSW 10.4 mph - N/A   Overcast
3:19 PM 5.0 °F -10.0 °F - N/A% 29.99 in 9.0 mi WSW 10.4 mph - N/A   Overcast
3:22 PM 5.0 °F -10.0 °F - N/A% 29.99 in 9.0 mi WSW 10.4 mph - N/A   Overcast
3:27 PM 5.0 °F -10.0 °F - N/A% 30.00 in 9.0 mi WSW 10.4 mph - N/A Snow Light Snow
4:00 PM 5 °F - - % 30.19 in 7 mi WSW 8.1 mph - - Snow Light Snow
4:00 PM 5.0 °F -9.1 °F - N/A% 30.19 in 8.0 mi WSW 9.2 mph - N/A Snow Light Snow
4:06 PM 5.0 °F -8.1 °F - N/A% 29.99 in 9.0 mi SW 8.1 mph - N/A   Overcast
4:23 PM 5.0 °F -10.8 °F - N/A% 29.99 in 7.0 mi WSW 11.5 mph - N/A Snow Light Snow
4:30 PM 5.0 °F -10.0 °F - N/A% 29.99 in 9.0 mi SW 10.4 mph - N/A Snow Light Snow
4:40 PM 5.0 °F -10.0 °F - N/A% 29.99 in 8.0 mi SW 10.4 mph - N/A Snow Light Snow
4:44 PM 5.0 °F -9.1 °F - N/A% 29.99 in 7.0 mi SW 9.2 mph - N/A Snow Light Snow
4:49 PM 5.0 °F -10.8 °F - N/A% 29.99 in 7.0 mi WSW 11.5 mph - N/A Snow Light Snow
5:00 PM 5.0 °F -10.0 °F - N/A% 30.20 in 8.0 mi WSW 10.4 mph - N/A Snow Light Snow
5:06 PM 5.0 °F -10.0 °F - N/A% 30.00 in 7.0 mi WSW 10.4 mph - N/A Snow Light Snow
5:19 PM 5.0 °F -9.1 °F - N/A% 29.99 in 2.8 mi SW 9.2 mph - N/A Snow Light Snow
5:24 PM 5.0 °F -10.0 °F - N/A% 29.99 in 2.1 mi SW 10.4 mph - N/A Snow Light Snow
5:39 PM 5.0 °F -10.8 °F - N/A% 29.99 in 3.0 mi SW 11.5 mph - N/A Snow Light Snow
5:44 PM 5.0 °F -11.6 °F - N/A% 29.99 in 3.5 mi SW 12.7 mph - N/A Snow Light Snow
5:46 PM 5.0 °F -10.8 °F - N/A% 29.99 in 3.5 mi SW 11.5 mph - N/A Snow Light Snow
5:55 PM 6.8 °F -8.6 °F - N/A% 29.98 in 3.0 mi SW 11.5 mph - N/A Snow Light Snow
6:00 PM 6.8 °F -8.6 °F - N/A% 30.18 in 2.8 mi SW 11.5 mph - N/A Snow Light Snow
6:07 PM 6.8 °F -7.8 °F - N/A% 29.98 in 2.2 mi SW 10.4 mph - N/A Snow Light Snow
6:10 PM 6.8 °F -7.8 °F - N/A% 29.98 in 2.0 mi SW 10.4 mph - N/A Snow Light Snow
6:16 PM 6.8 °F -7.8 °F - N/A% 29.98 in 2.0 mi SW 10.4 mph - N/A Snow Light Snow
6:21 PM 6.8 °F -6.9 °F - N/A% 29.98 in 1.8 mi SSW 9.2 mph - N/A Snow Light Snow
6:35 PM 6.8 °F -7.8 °F - N/A% 29.98 in 2.0 mi South 10.4 mph - N/A Snow Light Snow
6:41 PM 6.8 °F -8.6 °F - N/A% 29.98 in 1.4 mi South 11.5 mph - N/A Snow Light Snow
6:49 PM 6.8 °F -7.8 °F - N/A% 29.97 in 1.1 mi SSW 10.4 mph - N/A Snow Light Snow
7:00 PM 6 °F - - % 30.17 in 1 mi South 11.5 mph - -   Overcast
7:00 PM 6.8 °F -8.6 °F - N/A% 30.17 in 1.2 mi South 11.5 mph - N/A Snow Light Snow
7:23 PM 6.8 °F -10.7 °F - N/A% 29.97 in 0.8 mi SSW 15.0 mph - N/A Snow Light Snow
7:24 PM 6.8 °F -10.7 °F - N/A% 29.97 in 0.6 mi SSW 15.0 mph - N/A Snow Light Snow
7:29 PM 6.8 °F -10.7 °F - N/A% 29.97 in 0.4 mi SSW 15.0 mph - N/A Snow Light Snow
7:39 PM 6.8 °F -11.3 °F - N/A% 29.96 in 0.1 mi SSW 16.1 mph - N/A Snow Light Snow
7:54 PM 6.8 °F -11.8 °F - N/A% 29.95 in 0.1 mi SSW 17.3 mph - N/A Snow Light Snow
8:00 PM 6.8 °F -11.8 °F - N/A% 30.13 in 0.1 mi SSW 17.3 mph - N/A Snow Light Snow
8:46 PM 6.8 °F -12.9 °F - N/A% 29.93 in 0.1 mi SW 19.6 mph - N/A Snow Light Snow
9:00 PM 6.8 °F -12.9 °F - N/A% 30.11 in 0.1 mi SW 19.6 mph - N/A Snow Light Snow
9:30 PM 8.6 °F -9.5 °F - N/A% 29.92 in 0.1 mi SW 17.3 mph - N/A   Light Freezing Drizzle
9:37 PM 8.6 °F -8.3 °F - N/A% 29.91 in 0.1 mi SW 15.0 mph - N/A Snow Light Snow
9:43 PM 8.6 °F -10.5 °F - N/A% 29.91 in 0.1 mi SW 19.6 mph - N/A   Light Freezing Drizzle
9:46 PM 8.6 °F -10.5 °F - N/A% 29.91 in 0.1 mi SW 19.6 mph - N/A   Light Freezing Drizzle
9:53 PM 8.6 °F -9.5 °F - N/A% 29.91 in 0.1 mi SW 17.3 mph - N/A Snow Light Snow
9:55 PM 8.6 °F -10.0 °F - N/A% 29.91 in 0.1 mi SW 18.4 mph - N/A   Light Freezing Drizzle
10:00 PM 9 °F - - % 30.09 in 0 mi SW 18.4 mph - - Rain Light Freezing Rain
10:00 PM 8.6 °F -10.5 °F - N/A% 30.09 in 0.1 mi SW 19.6 mph - N/A   Light Freezing Drizzle
10:07 PM 8.6 °F -11.0 °F - N/A% 29.91 in 0.1 mi SW 20.7 mph - N/A Snow Light Snow
10:33 PM 10.4 °F -10.3 °F - N/A% 29.90 in 0.1 mi WSW 25.3 mph - N/A Snow Light Snow
10:40 PM 10.4 °F -11.0 °F - N/A% 29.90 in 0.5 mi WSW 27.6 mph - N/A Snow Light Snow
10:43 PM 10.4 °F -11.4 °F - N/A% 29.90 in 1.1 mi WSW 28.8 mph - N/A Snow Light Snow
10:53 PM 12.2 °F -8.6 °F - N/A% 29.89 in 1.0 mi WSW 27.6 mph - N/A Snow Light Snow